Regional Weather Roundup
Issued by NWS

Home | Current Version | Previous Version | Graphics & Text | Print | Product List | Glossary On
Versions: 1 2 3 4 5 6 7 8 9 10 11 12 13 14 15 16 17 18 19 20 21 22 23 24 25 26 27 28
000
ASUS45 KTFX 230910
RWRMT
MONTANA REGIONAL WEATHER ROUNDUP
NATIONAL WEATHER SERVICE GREAT FALLS MT
200 AM MST TUE JAN 23 2018

NOTE: "FAIR" INDICATES FEW OR NO CLOUDS BELOW 12000 FEET WITH NO
SIGNIFICANT WEATHER AND/OR OBSTRUCTIONS TO VISIBILITY.

MTZ001>007-043-231000-
WEST OF THE DIVIDE

CITY           SKY/WX    TMP DP  RH WIND       PRES   REMARKS
KALISPELL      CLOUDY    32  29  88 S8        30.19S WCI  25
MISSOULA       FOG       24  21  88 CALM      30.24S VSB 1/2
BUTTE          CLOUDY    20  13  74 CALM      30.16R
MULLAN PASS    LGT SNOW  21  20  96 VRB3      30.12  FOG
ANACONDA         N/A     27  16  63 S8        30.18R WCI  18
DEER LODGE       N/A     19  18  93 CALM      30.20S
EUREKA           N/A     32  21  64 MISG      30.18S
HAMILTON         N/A     28  21  74 S5        30.24S
PLAINS           N/A     30  26  85 NE1       30.23R VSB 1
RONAN            N/A     30  27  86 S8        30.24  WCI  23
$$

MTZ008-052>055-231000-
SOUTHWEST MONTANA

CITY           SKY/WX    TMP DP  RH WIND       PRES   REMARKS
BOZEMAN        CLOUDY    19  13  77 S6        30.18S WCI  11
DILLON         MOCLDY    14  12  92 S15       30.18R WCI  -1
ENNIS          CLOUDY    23  14  68 S13G18    30.23R WCI  11
W YELLOWSTONE  MOCLDY     0  -4  85 CALM      30.18R
THREE FORKS      N/A     20  17  88 CALM      30.15R
TWIN BRIDGES     N/A     23  13  65 CALM      30.16
$$

MTZ009-010-012-014-046-048-049-054-231000-
EAST SLOPES AND CENTRAL MONTANA

CITY           SKY/WX    TMP DP  RH WIND       PRES   REMARKS
CUT BANK       FAIR      27  17  66 W21       30.04R WCI  13
GREAT FALLS    FAIR      26  18  71 SW14      30.08R WCI  14
MALMSTROM AFB  FAIR      29  20  70 SW17      30.09R WCI  17
HELENA         FAIR      31  18  58 W7        30.17R WCI  24
AUGUSTA        FAIR      28  17  63 W15G25    30.06S WCI  16
BOWMANS CRNR   FAIR      23  18  80 SW10      30.07S WCI  13
CHOTEAU          N/A     30  14  51 W9        30.08S WCI  22
FAIRFIELD      FAIR      27  16  63 SW14      30.07R WCI  16
POWER          FAIR      19  13  77 SW9       30.07R WCI   8
RAYNESFORD     MOCLDY    32  16  51 SW14G21   30.08S WCI  22
ULM            FAIR      28  19  69 SW13      30.10R WCI  17
WHITE SULPHUR    N/A     23  16  74 W8        30.11R WCI  14
$$

MTZ011-013-016-021-045-047-050-051-231000-
NORTH CENTRAL MONTANA

CITY           SKY/WX    TMP DP  RH WIND       PRES   REMARKS
HAVRE          FAIR      27  21  78 SW20      30.05S WCI  13
LEWISTOWN      FAIR      26  19  74 SW16      30.06R WCI  14
N BAR RANCH    FAIR      30  16  55 W23       30.03R WCI  17
CHINOOK          N/A     27  21  80 W7        30.04S WCI  19
DENTON         MOCLDY    30  19  64 MISG      30.02S
GEYSER         FAIR      28  17  65 W17       30.05R WCI  15
GRASS RANGE    FAIR      29  18  63 W14       30.02R WCI  18
STANFORD       FAIR      29  17  58 W25       30.04F WCI  15
WINIFRED       FAIR      28  19  69 SW8       30.04R WCI  20
$$

MTZ017>020-022>027-061-062-231000-
NORTHEAST MONTANA

CITY           SKY/WX    TMP DP  RH WIND       PRES   REMARKS
GLASGOW        FAIR      14  10  84 W7        30.03R WCI   4
GLENDIVE       FAIR      25  19  78 W12       30.04R WCI  14
JORDAN           N/A     14   9  80 W8        30.05S WCI   3
MALTA          CLEAR     12  10  92 W9        30.05R WCI   0
SIDNEY         FAIR      18  16  92 S6        30.01S WCI  10
WOLF POINT     FAIR      10   7  87 SW8       30.03S WCI  -2
PLENTYWOOD       N/A     23  16  74 CALM      29.98R
POPLAR           N/A     14  10  85 SW9       30.03S WCI   2
SCOBEY           N/A     12   4  70 CALM      29.97
$$

MTZ028>42-056>058-231000-
SOUTHCENTRAL AND SOUTHEAST MONTANA

CITY           SKY/WX    TMP DP  RH WIND       PRES   REMARKS
BAKER          FAIR      25  21  85 W14       30.04R WCI  13
BILLINGS       FAIR      25  16  68 SW18      30.10S WCI  11
LIVINGSTON     CLOUDY    29  19  66 W15       30.13S WCI  18
MILES CITY     CLOUDY    21  18  88 W8        30.07R WCI  11
BIG TIMBER     CLEAR     28  18  64 W20G28    30.14R WCI  15
EKALAKA          N/A     30  19  63 SW10      30.01  WCI  21
FORSYTH          N/A     28  21  74 SW7       30.09R WCI  21
HARLOWTON      FAIR      24  18  75 NW18      30.08S WCI  11
LAUREL           N/A     23  16  74 SW15G21   30.12F WCI  10
$$

REGIONAL REPORTS...DAKOTAS

CITY           SKY/WX    TMP DP  RH WIND       PRES   REMARKS
WILLISTON      FAIR      21  15  78 W10       29.99S WCI  10
MINOT          FAIR      13   9  84 CALM      29.95S
DICKINSON      FAIR      26  20  77 W12       29.97R WCI  16
BEACH          FAIR      25  21  86 W13       30.04R WCI  13
CROSBY         FAIR      23  18  80 W12       29.96R WCI  12
TIOGA          FAIR      14  14 100 SW3       29.97R
WATFORD CITY   FAIR      19  16  86 SW9       29.99R WCI   9
BISMARCK       CLOUDY    18  16  92 SW5       30.02F FOG
GRAND FORKS    CLOUDY    22  16  78 NE5       30.07S
FARGO          CLOUDY    21  18  88 N9        30.06R WCI  11
BUFFALO SD       N/A     28  21  75 W10       29.97R WCI  19
RAPID CITY     CLOUDY    32  26  78 N13       30.08R WCI  22
$$

REGIONAL REPORTS...WYOMING/IDAHO/WASHINGTON

CITY           SKY/WX    TMP DP  RH WIND       PRES   REMARKS
GILLETTE       MOCLDY    26  18  71 SW14      30.08S WCI  14
SHERIDAN       FAIR      24  18  77 S5        30.09F
BUFFALO WY     FAIR      23  15  71 W8        30.09F WCI  14
CODY           FAIR      30  13  49 SW20      30.12R WCI  17
YELLOWSTONE LA   N/A     -3  -6  87 NW3       30.16S
IDAHO FALLS    CLOUDY    24  23  96 CALM      30.27S
SALMON         CLOUDY    21  19  93 NW3       30.30R
BOISE          FAIR      30  26  85 SE8       30.31F WCI  22
SPOKANE        FAIR      30  30 100 SE5       30.23S
$$

REGIONAL REPORTS...ALBERTA

CITY           SKY/WX    TMP DP  RH WIND       PRES   REMARKS
CALGARY        PTCLDY    21  10  63 S6        29.98R WCI  14
CARDSTON         N/A     30  14  51 W12G17      N/A  WCI  21
EDMONTON       CLEAR     19  14  79 W8        29.96R WCI   9
FORT MCMURRAY  CLOUDY    10   9  92 CALM      30.00R
HIGH LEVEL     FLURRIES   5   3  92 CALM      30.01R
LETHBRIDGE     CLEAR     30  18  59 W17       30.03R WCI  18
LLOYDMINSTER   FOG       18  18 100 W7        29.94  VSB 3/8 WCI   8
MEDICINE HAT   CLEAR     21  18  86 SW8       30.01R WCI  12
PEACE RIVER    FOG       19  16  86 S6        29.92S VSB 1/4 WCI  11
PINCHER CREEK  MOCLDY    27  16  63 W12       30.05R WCI  16
WATERTON GATE    N/A     30  14  51 SW18G30     N/A  WCI  18
$$

REGIONAL REPORTS...SASKATCHEWAN

CITY           SKY/WX    TMP DP  RH WIND       PRES   REMARKS
CORONACH         N/A     10   7  85 CALM        N/A
CYPRESS HILLS    N/A     25  12  58 NW6         N/A  WCI  18
ESTEVAN        PTCLDY    16  12  86 W12       29.94R WCI   3
MOOSE JAW        N/A     18  18 100 NW10        N/A  WCI   6
PRINCE ALBERT  LGT SNOW  12  10  92 SW3       29.97R FOG
REGINA         CLOUDY    18  16  93 NW17      29.96R FOG     WCI   2
ROCKGLEN         N/A     27  19  74 NW10        N/A  WCI  17
SASKATOON      CLOUDY    23  19  86 W9        29.99R WCI  13
SWIFT CURRENT  CLEAR     19  16  86 W9        29.96R WCI   9
VAL MARIE        N/A     16  10  79 NW10        N/A  WCI   3
$$




USA.gov is the U.S. government's official web portal to all federal, state and local government web resources and services.